| time (UTC) | temp F | wind direction | speed MPH | gust MPH | rain 1hr in | rain 24hr in | rain mn in | humidity % | barometer mb |
| 20260904071544 | 65 | 189 | 1.0 | 2.0 | 0.00 | 0.00 | 0.00 | 47 | 1004.2 |
| 20260904070042 | 65 | 204 | 0.0 | 3.0 | 0.00 | 0.00 | 0.00 | 45 | 1004.1 |
| 20260904064541 | 65 | 214 | 1.0 | 3.0 | 0.00 | 0.00 | 0.00 | 45 | 1004.0 |
| 20260904063043 | 65 | 212 | 1.0 | 2.0 | 0.00 | 0.00 | 0.00 | 49 | 1003.9 |
| 20260904061545 | 65 | 212 | 0.0 | 2.0 | 0.00 | 0.00 | 0.00 | 55 | 1003.8 |
| 20260904060040 | 65 | 223 | 0.0 | 2.0 | 0.00 | 0.00 | 0.00 | 57 | 1003.7 |
| 20260904054540 | 66 | 218 | 0.0 | 2.0 | 0.00 | 0.00 | 0.00 | 56 | 1003.7 |
| 20260904053039 | 66 | 212 | 1.0 | 3.0 | 0.00 | 0.00 | 0.00 | 55 | 1003.7 |
| 20260904051539 | 67 | 211 | 1.0 | 2.0 | 0.00 | 0.00 | 0.00 | 56 | 1003.6 |
| 20260904050038 | 67 | 210 | 0.0 | 3.0 | 0.00 | 0.00 | 0.00 | 54 | 1003.8 |
| 20260904044551 | 67 | 247 | 1.0 | 3.0 | 0.00 | 0.00 | 0.00 | 54 | 1003.8 |
| 20260904043059 | 67 | 215 | 1.0 | 4.0 | 0.00 | 0.00 | 0.00 | 53 | 1003.6 |
| 20260904041536 | 68 | 185 | 1.0 | 2.0 | 0.00 | 0.00 | 0.00 | 52 | 1003.5 |
| 20260904040036 | 68 | 226 | 1.0 | 3.0 | 0.00 | 0.00 | 0.00 | 52 | 1003.4 |
| 20260904034536 | 68 | 215 | 1.0 | 2.0 | 0.00 | 0.00 | 0.00 | 54 | 1003.3 |
| 20260904033036 | 68 | 216 | 1.0 | 2.0 | 0.00 | 0.00 | 0.00 | 56 | 1003.2 |
| 20260904031534 | 68 | 208 | 0.0 | 2.0 | 0.00 | 0.00 | 0.00 | 54 | 1003.1 |
| 20260904030034 | 69 | 222 | 1.0 | 2.0 | 0.00 | 0.00 | 0.00 | 52 | 1003.0 |
| 20260904024533 | 70 | 192 | 0.0 | 2.0 | 0.00 | 0.00 | 0.00 | 50 | 1003.0 |
| 20260904023032 | 70 | 220 | 0.0 | 2.0 | 0.00 | 0.00 | 0.00 | 51 | 1002.9 |
| 20260904021531 | 71 | 207 | 0.0 | 2.0 | 0.00 | 0.00 | 0.00 | 50 | 1002.9 |
| 20260904020032 | 72 | 359 | 0.0 | 3.0 | 0.00 | 0.00 | 0.00 | 48 | 1002.9 |
| 20260904014531 | 73 | 218 | 1.0 | 3.0 | 0.00 | 0.00 | 0.00 | 46 | 1002.8 |
| 20260904013030 | 74 | 205 | 1.0 | 3.0 | 0.00 | 0.00 | 0.00 | 43 | 1002.9 |
| 20260904011530 | 75 | 214 | 1.0 | 3.0 | 0.00 | 0.00 | 0.00 | 39 | 1002.8 |
| 20260904010028 | 75 | 212 | 1.0 | 3.0 | 0.00 | 0.00 | 0.00 | 34 | 1002.7 |
| 20260904004527 | 76 | 195 | 2.0 | 6.0 | 0.00 | 0.00 | 0.00 | 32 | 1002.7 |
| 20260904003027 | 76 | 237 | 1.0 | 8.0 | 0.00 | 0.00 | 0.00 | 31 | 1002.9 |
| 20260904001524 | 77 | 209 | 1.0 | 3.0 | 0.00 | 0.00 | 0.00 | 32 | 1002.8 |
| 20260904000024 | 77 | 190 | 2.0 | 10.0 | 0.00 | 0.00 | 0.00 | 31 | 1003.2 |
| 20260903234527 | 77 | 189 | 1.0 | 9.0 | 0.00 | 0.00 | 0.00 | 31 | 1003.4 |
| 20260903233022 | 78 | 182 | 1.0 | 4.0 | 0.00 | 0.00 | 0.00 | 29 | 1003.2 |
| 20260903231521 | 78 | 210 | 1.0 | 3.0 | 0.00 | 0.00 | 0.00 | 28 | 1003.4 |
| 20260903230020 | 78 | 198 | 1.0 | 4.0 | 0.00 | 0.00 | 0.00 | 28 | 1003.5 |
| 20260903224525 | 78 | 210 | 1.0 | 3.0 | 0.00 | 0.00 | 0.00 | 28 | 1003.7 |
| 20260903223020 | 78 | 192 | 1.0 | 3.0 | 0.00 | 0.00 | 0.00 | 27 | 1003.7 |
| 20260903221516 | 78 | 180 | 1.0 | 3.0 | 0.00 | 0.00 | 0.00 | 27 | 1003.9 |
| 20260903220014 | 78 | 190 | 1.0 | 3.0 | 0.00 | 0.00 | 0.00 | 26 | 1004.0 |
| 20260903214514 | 78 | 207 | 1.0 | 3.0 | 0.00 | 0.00 | 0.00 | 27 | 1004.2 |
| 20260903213013 | 78 | 216 | 1.0 | 4.0 | 0.00 | 0.00 | 0.00 | 27 | 1004.3 |
| 20260903211509 | 77 | 202 | 1.0 | 6.0 | 0.00 | 0.00 | 0.00 | 28 | 1004.4 |
| 20260903210008 | 78 | 202 | 1.0 | 2.0 | 0.00 | 0.00 | 0.00 | 26 | 1004.3 |
| 20260903204505 | 78 | 230 | 1.0 | 3.0 | 0.00 | 0.00 | 0.00 | 26 | 1004.3 |
| 20260903203004 | 77 | 170 | 0.0 | 2.0 | 0.00 | 0.00 | 0.00 | 27 | 1004.5 |
| 20260903201500 | 77 | 195 | 1.0 | 4.0 | 0.00 | 0.00 | 0.00 | 28 | 1004.6 |
| 20260903200059 | 77 | 197 | 1.0 | 3.0 | 0.00 | 0.00 | 0.00 | 28 | 1004.6 |
| 20260903194557 | 77 | 205 | 1.0 | 3.0 | 0.00 | 0.00 | 0.00 | 27 | 1004.7 |
| 20260903193056 | 76 | 204 | 1.0 | 3.0 | 0.00 | 0.00 | 0.00 | 29 | 1005.0 |
| 20260903191559 | 77 | 206 | 1.0 | 3.0 | 0.00 | 0.00 | 0.00 | 30 | 1005.1 |
| 20260903190051 | 77 | 201 | 0.0 | 2.0 | 0.00 | 0.00 | 0.00 | 30 | 1005.2 |
| 20260903184556 | 76 | 185 | 0.0 | 3.0 | 0.00 | 0.00 | 0.00 | 32 | 1005.4 |
| 20260903183056 | 76 | 197 | 1.0 | 3.0 | 0.00 | 0.00 | 0.00 | 30 | 1005.7 |
| 20260903181547 | 75 | 204 | 1.0 | 3.0 | 0.00 | 0.00 | 0.00 | 29 | 1005.7 |
| 20260903180052 | 75 | 212 | 1.0 | 2.0 | 0.00 | 0.00 | 0.00 | 28 | 1005.8 |
| 20260903174547 | 75 | 189 | 1.0 | 2.0 | 0.00 | 0.00 | 0.00 | 25 | 1005.7 |
| 20260903173046 | 75 | 191 | 0.0 | 2.0 | 0.00 | 0.00 | 0.00 | 24 | 1005.7 |
| 20260903171544 | 75 | 212 | 0.0 | 2.0 | 0.00 | 0.00 | 0.00 | 22 | 1005.7 |
| 20260903170042 | 74 | 236 | 0.0 | 2.0 | 0.00 | 0.00 | 0.00 | 24 | 1005.7 |
| 20260903164539 | 73 | 193 | 0.0 | 0.0 | 0.00 | 0.00 | 0.00 | 26 | 1005.7 |
| 20260903163041 | 71 | 256 | 0.0 | 0.0 | 0.00 | 0.00 | 0.00 | 32 | 1005.7 |
| 20260903161533 | 70 | 243 | 0.0 | 0.0 | 0.00 | 0.00 | 0.00 | 34 | 1005.9 |
| 20260903160030 | 69 | 258 | 0.0 | 0.0 | 0.00 | 0.00 | 0.00 | 35 | 1005.9 |
| 20260903154528 | 68 | 258 | 0.0 | 1.0 | 0.00 | 0.00 | 0.00 | 37 | 1005.9 |
| 20260903153024 | 67 | 251 | 0.0 | 3.0 | 0.00 | 0.00 | 0.00 | 39 | 1005.8 |
| 20260903151521 | 66 | 253 | 0.0 | 1.0 | 0.00 | 0.00 | 0.00 | 43 | 1005.8 |
| 20260903150021 | 64 | 253 | 0.0 | 1.0 | 0.00 | 0.00 | 0.00 | 45 | 1005.7 |
| 20260903144518 | 63 | 264 | 0.0 | 0.0 | 0.00 | 0.00 | 0.00 | 49 | 1005.7 |
| 20260903143035 | 61 | 264 | 0.0 | 0.0 | 0.00 | 0.00 | 0.00 | 50 | 1005.6 |
| 20260903141515 | 60 | 270 | 0.0 | 0.0 | 0.00 | 0.00 | 0.00 | 52 | 1005.4 |
| 20260903140022 | 59 | 264 | 0.0 | 0.0 | 0.00 | 0.00 | 0.00 | 53 | 1005.4 |
| 20260903134512 | 58 | 255 | 0.0 | 0.0 | 0.00 | 0.00 | 0.00 | 51 | 1005.4 |
| 20260903133014 | 59 | 256 | 0.0 | 0.0 | 0.00 | 0.00 | 0.00 | 48 | 1005.2 |
| 20260903131507 | 61 | 253 | 0.0 | 0.0 | 0.00 | 0.00 | 0.00 | 43 | 1005.2 |
| 20260903130008 | 61 | 254 | 0.0 | 0.0 | 0.00 | 0.00 | 0.00 | 42 | 1005.0 |
| 20260903124506 | 62 | 236 | 0.0 | 0.0 | 0.00 | 0.00 | 0.00 | 41 | 1005.1 |
| 20260903123005 | 63 | 261 | 0.0 | 0.0 | 0.00 | 0.00 | 0.00 | 37 | 1005.0 |
| 20260903121504 | 63 | 227 | 0.0 | 0.0 | 0.00 | 0.00 | 0.00 | 31 | 1004.9 |
| 20260903120003 | 63 | 236 | 0.0 | 0.0 | 0.00 | 0.00 | 0.00 | 33 | 1005.0 |
| 20260903114502 | 63 | 216 | 0.0 | 1.0 | 0.00 | 0.00 | 0.00 | 35 | 1005.1 |
| 20260903113100 | 63 | 222 | 0.0 | 0.0 | 0.00 | 0.00 | 0.00 | 34 | 1005.1 |
| 20260903111607 | 62 | 234 | 0.0 | 1.0 | 0.00 | 0.00 | 0.00 | 37 | 1005.1 |
| 20260903110058 | 62 | 238 | 0.0 | 0.0 | 0.00 | 0.00 | 0.00 | 42 | 1005.2 |
| 20260903104556 | 61 | 237 | 0.0 | 0.0 | 0.00 | 0.00 | 0.00 | 45 | 1005.3 |
| 20260903103056 | 60 | 268 | 0.0 | 0.0 | 0.00 | 0.00 | 0.00 | 47 | 1005.5 |
| 20260903101557 | 60 | 265 | 0.0 | 0.0 | 0.00 | 0.00 | 0.00 | 50 | 1005.6 |
| 20260903100054 | 61 | 264 | 0.0 | 0.0 | 0.00 | 0.00 | 0.00 | 50 | 1005.7 |
| 20260903094551 | 61 | 263 | 0.0 | 0.0 | 0.00 | 0.00 | 0.00 | 47 | 1005.8 |
| 20260903093047 | 61 | 268 | 0.0 | 2.0 | 0.00 | 0.00 | 0.00 | 45 | 1006.0 |
| 20260903091544 | 61 | 276 | 0.0 | 0.0 | 0.00 | 0.00 | 0.00 | 48 | 1006.1 |
| 20260903090043 | 61 | 270 | 0.0 | 0.0 | 0.00 | 0.00 | 0.00 | 46 | 1006.2 |
| 20260903084542 | 61 | 276 | 0.0 | 0.0 | 0.00 | 0.00 | 0.00 | 44 | 1006.4 |
| 20260903083046 | 62 | 280 | 0.0 | 0.0 | 0.00 | 0.00 | 0.00 | 42 | 1006.5 |
| 20260903081537 | 62 | 281 | 0.0 | 0.0 | 0.00 | 0.00 | 0.00 | 41 | 1006.4 |
| 20260903080038 | 61 | 295 | 0.0 | 0.0 | 0.00 | 0.00 | 0.00 | 43 | 1006.6 |
| 20260903074532 | 62 | 271 | 0.0 | 0.0 | 0.00 | 0.00 | 0.00 | 41 | 1006.7 |
| 20260903073032 | 64 | 233 | 0.0 | 1.0 | 0.00 | 0.00 | 0.00 | 25 | 1006.7 |